TimeCDT,TemperatureF,Dew PointF,Humidity,Sea Level PressureIn,VisibilityMPH,Wind Direction,Wind SpeedMPH,Gust SpeedMPH,PrecipitationIn,Events,Conditions,WindDirDegrees,DateUTC
12:13 AM,32.0,26.6,80,30.13,10.0,North,9.2,-,N/A,,Overcast,360,2013-03-17 05:13:00
12:53 AM,32.0,25.0,75,30.15,10.0,North,12.7,-,N/A,,Overcast,10,2013-03-17 05:53:00
1:46 AM,30.2,24.8,80,30.11,10.0,North,12.7,-,N/A,,Scattered Clouds,10,2013-03-17 06:46:00
1:53 AM,30.9,24.1,76,30.13,10.0,North,15.0,-,N/A,,Partly Cloudy,10,2013-03-17 06:53:00
2:53 AM,30.0,24.1,79,30.13,10.0,North,8.1,-,N/A,,Scattered Clouds,10,2013-03-17 07:53:00
3:05 AM,30.2,24.8,80,30.10,10.0,NNE,10.4,-,N/A,,Mostly Cloudy,20,2013-03-17 08:05:00
3:53 AM,28.9,23.0,78,30.14,10.0,NNE,11.5,-,N/A,,Mostly Cloudy,20,2013-03-17 08:53:00
4:17 AM,28.4,21.2,74,30.12,10.0,NNE,12.7,-,N/A,,Mostly Cloudy,30,2013-03-17 09:17:00
4:53 AM,28.0,19.9,72,30.13,10.0,NNE,12.7,-,N/A,,Partly Cloudy,30,2013-03-17 09:53:00
5:53 AM,28.0,21.0,75,30.16,10.0,NE,8.1,-,N/A,,Scattered Clouds,50,2013-03-17 10:53:00
6:05 AM,28.4,21.2,74,30.13,10.0,NE,8.1,-,N/A,,Mostly Cloudy,50,2013-03-17 11:05:00
6:53 AM,28.9,21.0,72,30.16,10.0,NE,9.2,-,N/A,,Overcast,50,2013-03-17 11:53:00
7:43 AM,28.4,19.4,69,30.14,10.0,ENE,10.4,-,N/A,,Partly Cloudy,70,2013-03-17 12:43:00
7:53 AM,28.9,19.9,69,30.17,10.0,East,11.5,-,N/A,,Partly Cloudy,80,2013-03-17 12:53:00
8:53 AM,28.9,19.9,69,30.17,10.0,East,11.5,-,N/A,,Mostly Cloudy,80,2013-03-17 13:53:00
9:53 AM,30.0,21.0,69,30.17,10.0,East,11.5,-,N/A,,Overcast,80,2013-03-17 14:53:00
10:53 AM,32.0,21.9,66,30.17,10.0,East,15.0,-,N/A,,Overcast,80,2013-03-17 15:53:00
11:53 AM,33.1,23.0,66,30.14,10.0,East,12.7,19.6,N/A,,Overcast,100,2013-03-17 16:53:00
12:53 PM,34.0,25.0,70,30.12,10.0,East,9.2,-,N/A,,Overcast,100,2013-03-17 17:53:00
1:53 PM,36.0,25.0,64,30.08,10.0,East,11.5,-,N/A,,Overcast,100,2013-03-17 18:53:00
2:53 PM,36.0,26.1,67,30.04,10.0,East,11.5,-,N/A,,Overcast,100,2013-03-17 19:53:00
3:53 PM,37.0,26.1,65,30.02,10.0,East,12.7,-,N/A,,Mostly Cloudy,100,2013-03-17 20:53:00
4:16 PM,39.2,26.6,61,29.99,10.0,ESE,11.5,-,N/A,,Scattered Clouds,110,2013-03-17 21:16:00
4:53 PM,37.9,26.1,62,30.00,10.0,East,12.7,21.9,N/A,,Mostly Cloudy,90,2013-03-17 21:53:00
5:44 PM,37.4,26.6,65,29.96,10.0,East,12.7,18.4,N/A,,Mostly Cloudy,90,2013-03-17 22:44:00
5:53 PM,37.0,27.0,67,29.99,10.0,East,9.2,19.6,N/A,,Mostly Cloudy,90,2013-03-17 22:53:00
6:53 PM,36.0,27.0,70,29.97,10.0,East,11.5,-,N/A,,Mostly Cloudy,90,2013-03-17 23:53:00
7:53 PM,35.1,27.0,72,29.96,10.0,East,10.4,18.4,N/A,,Overcast,90,2013-03-18 00:53:00
8:53 PM,35.1,27.0,72,29.94,10.0,East,9.2,-,N/A,,Overcast,90,2013-03-18 01:53:00
9:53 PM,34.0,27.0,75,29.92,10.0,East,12.7,-,N/A,,Overcast,90,2013-03-18 02:53:00
10:53 PM,34.0,27.0,75,29.91,10.0,East,12.7,-,N/A,,Overcast,90,2013-03-18 03:53:00
11:53 PM,34.0,28.0,79,29.89,7.0,East,10.4,-,0.00,Snow,Light Snow,80,2013-03-18 04:53:00